This is the latest recevied weather packets stored in our database for station/object W1RCY. If no packets are shown the sender has not sent any weather packets the latest 10 day(s).
| Time | Temp. | Humidity | Pressure | Rain* | Wind** | Luminosity | Snow |
|---|---|---|---|---|---|---|---|
| 1778032722 | 17.22° C | 81% | 1007.4 hPa | 0 mm | - | 0 W/m² | - |
| 1778032420 | 17.22° C | 81% | 1007.4 hPa | 0 mm | - | 0 W/m² | - |
| 1778032116 | 17.78° C | 80% | 1007.4 hPa | 0 mm | - | 0 W/m² | - |
| 1778031813 | 16.67° C | 82% | 1007.3 hPa | 0 mm | - | 0 W/m² | - |
| 1778031509 | 17.22° C | 84% | 1007 hPa | 0 mm | - | 0 W/m² | - |
| 1778031207 | 17.22° C | 82% | 1007.3 hPa | 0 mm | - | 0 W/m² | - |
| 1778030903 | 17.22° C | 81% | 1007.3 hPa | 0 mm | - | 0 W/m² | - |
| 1778030601 | 17.22° C | 82% | 1007.3 hPa | 0 mm | - | 0 W/m² | - |
| 1778030298 | 17.22° C | 82% | 1007.1 hPa | 0 mm | - | 0 W/m² | - |
| 1778029994 | 17.22° C | 81% | 1007 hPa | 0 mm | - | 0 W/m² | - |
| 1778029692 | 17.78° C | 80% | 1007.2 hPa | 0 mm | - | 0 W/m² | - |
| 1778029389 | 18.33° C | 76% | 1007.1 hPa | 0 mm | - | 0 W/m² | - |
| 1778029086 | 18.89° C | 73% | 1007.5 hPa | 0 mm | - | 0 W/m² | - |
| 1778028783 | 18.89° C | 72% | 1007 hPa | 0 mm | - | 0 W/m² | - |
| 1778028479 | 18.89° C | 72% | 1006.8 hPa | 0 mm | - | 0 W/m² | - |
| 1778028177 | 18.89° C | 71% | 1006.7 hPa | 0 mm | - | 0 W/m² | - |
| 1778027873 | 18.89° C | 70% | 1006.7 hPa | 0 mm | - | 0 W/m² | - |
| 1778027569 | 18.89° C | 70% | 1006.7 hPa | 0 mm | - | 0 W/m² | - |
| 1778027265 | 19.44° C | 70% | 1006.3 hPa | 0 mm | - | 0 W/m² | - |
| 1778026962 | 18.89° C | 70% | 1006.5 hPa | 0 mm | - | 0 W/m² | - |
| 1778026658 | 19.44° C | 70% | 1006.5 hPa | 0 mm | - | 0 W/m² | - |
| 1778026355 | 19.44° C | 71% | 1006.3 hPa | 0 mm | - | 0 W/m² | - |
| 1778026052 | 19.44° C | 71% | 1006 hPa | 0 mm | - | 0 W/m² | - |
| 1778025750 | 18.89° C | 71% | 1006.3 hPa | 0 mm | - | 0 W/m² | - |
| 1778025446 | 18.89° C | 73% | 1005.9 hPa | 0 mm | - | 0 W/m² | - |
* Rain latest hour (hover to see other rain measurements)
** Current wind speed in m/s (hover to see current wind gust speed)